CRRES DEB (CANISTER)

Satellite information

Favourite Embed

Satellite Type and Status

DEBRISIN ORBIT

Key statistics

Satellite CRRES DEB (CANISTER) at a glance.

Uptime

12926

Days in orbit

Revolutions

≈ 2.5

Per day

Orbit

MEO

Medium Earth Orbit

Inclination

18.3

Latest

Satellite identification and parameters

Extended collection of information and parameters for CRRES DEB (CANISTER).

Object identification

Identified? True

Debris? True

Object name: CRRES DEB (CANISTER)

International designator: 1990-065D

Object number (NORAD): 21588

Object ID (CCSDS): 21588

Country: UNITED STATES OF AMERICA (US)

Current information (Y/N): Y

RCS size: MEDIUM

Orbital parameters

Period: 565.872 minutes

Inclination: 18.3128 deg

SMA: 22662.398 km

Apoapsis: 32188.254 km

Periapsis: 380.273 km

RAAN: 255.7131 deg

Eccentricy: 0.70177879

Argument of periapsis: 333.4358 deg

Mean anomaly: 3.5189 deg

Mean motion: 2.54474319 rev/day

Mean motion (dot): 0.00000337 rev/day2

B* drag term: 0.0013447479 1/REarth

Two-line elements (TLE)

Creation date: Dec. 14, 2025, 3:07 a.m.

Reference frame: TEME

Reference center: EARTH

Epoch: Dec. 13, 2025, 6:18 a.m. UTC

TLE line 0: 0 CRRES DEB (CANISTER)

TLE line 1: 1 21588U 90065D 25347.26250978 .00000337 00000-0 13447-2 0 9998

TLE line 2: 2 21588 18.3128 255.7131 7017788 333.4358 3.5189 2.54474319121469

Live tracking on map

Real-time ground track for satellite CRRES DEB (CANISTER).

In-orbit conjunctions

There are no conjunctions computed for CRRES DEB (CANISTER), at the moment. Check back to stay up to date, as we update our databases every day.

Go to all conjunctions

Associated space launch

Magnetospheric research satellite

CRRES DEB (CANISTER) was lifted into orbit during the mission ‘Atlas I | CRRES’, on board a Atlas I space rocket.

The launch took place on July 25, 1990, 7:21 p.m. from Launch Complex 36B.

For more information about the launch, click the button.

Launch to space Atlas I | CRRES
Atlas I | CRRES

Agency: N/A

Status: Launch Successful

Launch date: July 25, 1990, 7:21 p.m. UTC

Rocket: Atlas I

Launch pad: Launch Complex 36B

Location: Cape Canaveral SFS, FL, USA

...

Latest news about this satellite

There are no fresh news available about this satellite. Check back as we update our databases every day.


Newsletter sign-up

Weekly statistics, charts and insights to help you stay on top of the space industry.